Effective Sunday, March 17, 2024, the National Weather Service National Data Buoy Center will discontinue its Dial-A-Buoy Interactive Voice Response system. For more information, see Service Change Notice 24-06 (PDF).

Station 42057 - Western Caribbean - 195 NM WSW of Negril, Jamaica Image indicating link to RSS feed of recent meteorological observations for station 42057


Conditions at 42057 as of
(6:30 am EST)
1130 GMT on 03/03/2024:
     

Click on the graph icon in the table below to see a time series plot of the last five days of that observation.

5-day plot - Wind Direction Wind Direction (WDIR): E ( 90 deg true )
5-day plot - Wind Speed Wind Speed (WSPD): 9.7 kts
5-day plot - Wind Gust Wind Gust (GST): 13.6 kts
5-day plot - Atmospheric Pressure Atmospheric Pressure (PRES):29.96 in
5-day plot - Air Temperature Air Temperature (ATMP): 80.4 °F
5-day plot - Water Temperature Water Temperature (WTMP): 81.1 °F
5-day plot - Dew Point Dew Point (DEWP): 75.0 °F
5-day plot - Heat Index Heat Index (HEAT): 85.8 °F
5-day plot - Wind Speed at 10 Meters Wind Speed at 10 meters (WSPD10M): 11.7 kts
5-day plot - Wind Speed at 20 Meters Wind Speed at 20 meters (WSPD20M): 11.7 kts
5-day plot -  Wind Speed, Wind Gust and Atmospheric Pressure Combined plot of Wind Speed, Gust, and Air Pressure
Supplemental Measurements
Highest 1-minute Wind Speed
Time (EST)5-day plot - 1-Minute Wind Speed WSPD 5-day plot - 1-Minute Wind Direction WDIR
6:28 am 11.7 kts-
Previous observations
TIME
(EST)
5-day plot - Wind Direction
WDIR
 
5-day plot - Wind Speed
WSPD
kts
5-day plot - Wind Gust
GST
kts
5-day plot - Wave Height
WVHT
ft
5-day plot - Dominant Wave Period
DPD
sec
5-day plot - Average Wave Period
APD
sec
5-day plot - Mean Wave Direction
MWD
 
5-day plot - Atmospheric Pressure
PRES
in
5-day plot - Pressure Tendency
PTDY
in
5-day plot - Air Temperature
ATMP
°F
5-day plot - Water Temperature
WTMP
°F
5-day plot - Dew Point
DEWP
°F
5-day plot - Salinity
SAL
psu
5-day plot - Visibility
VIS
nmi
5-day plot - Tide (above MLLW)
TIDE
ft
2024-03-03 06:20 am E 9.7 11.7 4.6 85.1ESE29.97- 80.4 81.1 74.8---
2024-03-03 06:10 am E 9.7 13.6 4.6-5.1ESE29.96- 80.2 81.1 74.8---
2024-03-03 06:00 am E 9.7 11.7----29.96+0.02 80.2 81.1 74.8---
2024-03-03 05:50 am E 9.7 11.7 4.6 85.3ESE29.96- 80.2 81.1 74.7---
2024-03-03 05:40 am E 9.7 11.7----29.95- 80.2 81.1 74.8---
2024-03-03 05:30 am E 9.7 11.7----29.95- 80.2 81.1 74.8---
2024-03-03 05:20 am E 9.7 11.7 4.6 85.3ESE29.94- 80.2 81.1 74.7---
2024-03-03 05:10 am E 11.7 13.6 4.6-5.3ESE29.94- 80.2 81.1 74.8---
2024-03-03 05:00 am E 9.7 13.6----29.94-0.02 80.2 81.1 74.8---
2024-03-03 04:50 am E 9.7 13.6 4.6 85.3 E29.94- 80.2 81.1 74.8---
2024-03-03 04:40 am E 9.7 13.6----29.94- 80.2 81.1 74.8---
2024-03-03 04:30 am E 9.7 13.6----29.93- 80.2 81.1 74.8---
2024-03-03 04:20 am E 9.7 13.6 4.9 95.4ESE29.94- 80.2 81.1 74.5---
2024-03-03 04:10 am E 11.7 13.6 4.9-5.4ESE29.94- 80.2 81.1 74.7---
2024-03-03 04:00 am E 9.7 11.7----29.93-0.04 80.2 81.1 74.8---
2024-03-03 03:50 am E 9.7 13.6 4.6 95.3ESE29.93- 80.4 81.1 75.2---
2024-03-03 03:40 am E 9.7 11.7----29.93- 80.2 81.3 74.8---
2024-03-03 03:30 am E 9.7 13.6----29.94- 80.4 81.3 75.2---
2024-03-03 03:20 am E 11.7 13.6 4.6 95.4 E29.93- 80.4 81.3 75.2---
2024-03-03 03:10 amESE 9.7 13.6 4.6-5.4 E29.93- 80.4 81.3 75.2---
2024-03-03 03:00 am E 9.7 13.6----29.94-0.05 80.4 81.3 75.2---
2024-03-03 02:50 am E 11.7 13.6 4.9 95.4 E29.94- 80.4 81.3 75.0---
2024-03-03 02:40 amESE 9.7 13.6----29.94- 80.6 81.3 75.4---
2024-03-03 02:30 amESE 9.7 13.6----29.94- 80.6 81.3 75.4---
2024-03-03 02:20 am E 9.7 15.5 4.6 95.3 E29.95- 80.6 81.3 75.2---
2024-03-03 02:10 am E 11.7 13.6----29.95- 80.8 81.3 75.2---
2024-03-03 02:00 am E 11.7 13.6----29.95-0.05 80.8 81.3 75.0---
2024-03-03 01:50 amESE 11.7 13.6 4.6 95.3ESE29.96- 80.8 81.3 75.2---
2024-03-03 01:40 am E 11.7 15.5----29.96- 81.0 81.3 75.0---
2024-03-03 01:30 am E 11.7 15.5----29.97- 80.8 81.3 75.0---
2024-03-03 01:20 am E 9.7 13.6 4.3 85.2 E29.97- 80.6 81.3 75.7---
2024-03-03 01:10 am E 11.7 13.6 4.3-5.2 E29.98- 80.6 81.3 75.6---
2024-03-03 01:00 am E 11.7 15.5----29.98-0.02 80.6 81.3 75.6---
2024-03-03 12:50 amESE 13.6 15.5 4.3 95.3 E29.98- 80.4 81.3 75.7---
2024-03-03 12:40 amESE 13.6 17.5----29.98- 80.6 81.3 76.3---
2024-03-03 12:30 am E 13.6 15.5----29.98- 81.0 81.3 75.9---
2024-03-03 12:20 am E 11.7 15.5 4.6 95.6 E29.99- 80.8 81.3 76.3---
2024-03-03 12:10 am E 11.7 15.5 4.6-5.6 E29.99- 80.8 81.3 76.3---
2024-03-03 12:00 am E 11.7 15.5----29.99+0.00 80.8 81.3 76.1---
2024-03-02 11:50 pm E 11.7 13.6 4.3 95.9 E30.00- 80.8 81.3 76.1---
2024-03-02 11:40 pm E 11.7 15.5----30.00- 80.8 81.3 76.1---
2024-03-02 11:30 pm E 11.7 13.6----30.00- 80.8 81.1 76.1---
2024-03-02 11:20 pm E 11.7 13.6 4.3 95.8 E30.01- 80.8 81.1 75.7---
2024-03-02 11:10 pmENE 11.7 13.6 4.3-5.8 E30.01- 80.8 81.1 75.9---
2024-03-02 11:00 pm E 11.7 13.6----30.01+0.03 80.8 81.1 75.9---
2024-03-02 10:50 pm E 11.7 15.5 4.3 95.8ESE30.01- 80.8 81.1 75.7---
2024-03-02 10:40 pm E 11.7 13.6----30.01- 81.0 81.1 75.7---
2024-03-02 10:30 pm E 11.7 15.5----30.01- 80.8 81.3 75.9---
2024-03-02 10:20 pmENE 11.7 13.6 4.3 85.8ESE30.01- 81.0 81.1 76.3---
2024-03-02 10:10 pm E 11.7 13.6 4.3-5.8ESE30.01- 81.0 81.1 76.1---
2024-03-02 10:00 pmENE 11.7 13.6----30.00+0.03 81.0 81.1 76.1---
2024-03-02 09:50 pmENE 11.7 13.6 4.3 96.1ESE30.00- 81.0 81.1 75.9---
2024-03-02 09:40 pmENE 11.7 13.6----30.00- 81.0 81.3 75.9---
2024-03-02 09:30 pmENE 9.7 11.7----30.00- 80.8 81.3 75.9---
2024-03-02 09:20 pmENE 9.7 11.7 4.3 96.1ESE29.99- 80.8 81.1 76.1---
2024-03-02 09:10 pmENE 9.7 11.7 4.3-6.1ESE29.99- 80.8 81.3 76.1---
2024-03-02 09:00 pmENE 9.7 11.7----29.99+0.02 80.8 81.3 76.1---
2024-03-02 08:50 pmENE 7.8 11.7 4.3 95.8 E29.98- 80.6 81.1 76.3---
2024-03-02 08:40 pmENE 9.7 11.7----29.98- 80.6 81.1 76.3---
2024-03-02 08:30 pm NE 9.7 11.7----29.98- 80.4 81.1 76.3---
2024-03-02 08:20 pmENE 9.7 11.7 4.6 85.9 E29.98- 80.6 81.1 76.5---
2024-03-02 08:10 pm NE 9.7 11.7----29.98- 80.6 81.1 76.5---
2024-03-02 08:00 pm NE 9.7 11.7----29.98+0.00 80.6 81.1 76.3---
2024-03-02 07:50 pm NE 9.7 13.6 4.6 85.9 E29.98- 80.6 81.1 76.3---
2024-03-02 07:40 pmENE 9.7 11.7 4.6-5.9 E29.97- 80.6 81.1 76.3---
2024-03-02 07:30 pmENE 9.7 13.6----29.97- 80.6 81.3 75.9---
2024-03-02 07:20 pmENE 9.7 11.7 4.3 95.7 E29.97- 80.6 81.3 76.1---
2024-03-02 07:10 pmENE 9.7 11.7 4.3-5.7 E29.97- 80.6 81.1 75.9---
2024-03-02 07:00 pmENE 9.7 11.7----29.97+0.00 80.6 81.1 75.9---
2024-03-02 06:50 pmENE 9.7 11.7 4.3 95.7 E29.97- 80.8 81.1 75.9---
2024-03-02 06:40 pmENE 9.7 11.7----29.97- 80.6 81.1 75.7---
2024-03-02 06:10 pmENE 7.8 9.7 3.9-5.4 E29.97- 81.0 81.1 75.6---
2024-03-02 06:00 pm E 7.8 11.7----29.97+0.00 81.1 81.1 75.7---
2024-03-02 05:50 pm E 9.7 11.7 4.3 95.6 E29.97- 81.0 81.1 75.0---
2024-03-02 05:40 pm E 9.7 11.7----29.97- 81.0 81.1 75.0---
2024-03-02 05:30 pm E 9.7 11.7----29.97- 81.0 81.1 75.0---
2024-03-02 05:20 pm E 7.8 9.7 3.9 85.5 E29.97- 81.0 81.1 75.0---
2024-03-02 05:10 pm E 7.8 9.7 3.9-5.5 E29.97- 80.8 81.1 75.6---
2024-03-02 05:00 pm E 7.8 9.7----29.97-0.03 80.6 81.1 75.4---
2024-03-02 04:50 pm E 9.7 11.7 3.9 95.5 E29.97- 80.6 81.1 75.6---
2024-03-02 04:40 pm E 9.7 11.7 3.9-5.5 E29.97- 80.4 81.1 75.2---
2024-03-02 04:30 pm E 9.7 11.7----29.96- 80.6 81.3 75.9---
2024-03-02 04:20 pm E 9.7 11.7 4.3 95.6 E29.96- 81.0 81.1 75.7---
2024-03-02 04:10 pm E 9.7 11.7 4.3-5.6 E29.96- 81.0 81.3 75.2---
2024-03-02 04:00 pm E 9.7 11.7----29.96-0.05 81.1 81.3 75.0---
2024-03-02 03:50 pm E 9.7 13.6 4.3 95.4 E29.96- 81.0 81.3 74.7---
2024-03-02 03:40 pm NE 7.8 9.7 4.3-5.4 E29.96- 80.6 81.3 74.5---
2024-03-02 03:30 pmENE 7.8 9.7----29.97- 81.0 81.3 74.3---
2024-03-02 03:20 pm E 7.8 9.7 4.6 85.5ESE29.97- 81.0 81.3 73.8---
2024-03-02 03:10 pmENE 7.8 9.7----29.97- 80.6 81.3 73.6---
2024-03-02 03:00 pmENE 5.8 7.8----29.98-0.06 80.2- 73.6---
2024-03-02 02:50 pmENE 5.8 7.8 5.2 85.6ESE29.98- 80.2 81.3 73.4---
2024-03-02 02:40 pmENE 5.8 7.8----29.98- 80.2 81.3 73.2---
2024-03-02 02:30 pm NE 7.8 9.7----29.98- 79.7 81.3 72.7---
2024-03-02 02:20 pm NE 9.7 11.7 5.2 95.4ESE29.98- 79.3 81.3 73.0---
2024-03-02 02:10 pm NE 11.7 15.5 5.2-5.4ESE29.99- 79.2 81.3 73.6---
2024-03-02 02:00 pm NE 13.6 17.5----30.00-0.05 79.0 81.3 73.9---
2024-03-02 01:50 pmENE 13.6 17.5 5.6-5.4ESE30.00-- 81.3----
2024-03-02 01:40 pmENE 15.5 17.5 5.6-5.4ESE30.00- 79.0 81.3 75.2---
2024-03-02 01:30 pmENE 15.5 19.4----30.01- 79.3 81.3 75.2---
2024-03-02 01:20 pm E 11.7 15.5 5.6 65.3 E30.01- 80.8 81.3 74.7---
2024-03-02 01:10 pm E 11.7 13.6 5.6-5.3 E30.01- 80.8 81.3 74.5---
2024-03-02 01:00 pm E 11.7 15.5----30.01-0.04 80.8 81.3 74.5---
2024-03-02 12:50 pmESE 11.7 15.5 5.6 85.3 E30.02- 80.8 81.3 74.3---
2024-03-02 12:40 pmESE 13.6 15.5----30.02- 80.8 81.3 74.1---
2024-03-02 12:30 pmESE 13.6 17.5----30.02- 80.8 81.3 73.8---
2024-03-02 12:20 pmESE 13.6 17.5 5.2 95.2 E30.03- 80.6 81.3 73.6---
2024-03-02 12:10 pmESE 13.6 17.5 5.2-5.2 E30.03- 80.8 81.3 73.9---
2024-03-02 12:00 pmESE 11.7 15.5----30.03-0.01 80.8 81.3 73.9---
2024-03-02 11:50 amESE 13.6 15.5 4.9 95.3 E30.04- 80.8 81.3 73.6---
2024-03-02 11:40 amESE 11.7 15.5 4.9-5.3 E30.04- 80.8 81.3 73.9---
2024-03-02 11:30 amESE 11.7 15.5----30.04- 80.6 81.3 73.9---
2024-03-02 11:20 amESE 15.5 17.5 4.3 85.0 E30.04- 80.1 81.3 74.1---
2024-03-02 11:10 amESE 15.5 19.4 4.3-5.0 E30.04- 80.1 81.3 74.7---
2024-03-02 11:00 amESE 17.5 21.4----30.04+0.02 80.2 81.3 74.8---
2024-03-02 10:50 amESE 15.5 19.4 4.6 95.3 E30.04- 80.4 81.3 74.5---
2024-03-02 10:40 amESE 15.5 19.4----30.05- 80.4 81.3 74.8---
2024-03-02 10:30 amESE 15.5 19.4----30.05- 80.4 81.3 75.4---
2024-03-02 10:20 am E 15.5 19.4 4.6 85.4 E30.05- 80.8 81.3 75.4---
2024-03-02 10:10 am E 13.6 17.5 4.6-5.4 E30.05- 80.8 81.3 75.6---
2024-03-02 10:00 am E 13.6 15.5----30.05+0.04 80.6 81.3 75.7---
2024-03-02 09:50 am E 13.6 15.5 4.6 95.7ESE30.05- 80.6 81.3 76.1---
2024-03-02 09:40 am E 13.6 15.5----30.05- 80.8 81.3 75.9---
2024-03-02 09:30 am E 11.7 13.6----30.05- 81.0 81.3 75.0---
2024-03-02 09:20 am E 11.7 15.5 4.6 95.7ESE30.05- 81.0 81.3 74.8---
2024-03-02 09:10 amENE 11.7 13.6 4.6-5.7ESE30.04- 81.1 81.3 74.8---
2024-03-02 09:00 amENE 11.7 13.6----30.04+0.05 81.1 81.3 74.3---
2024-03-02 08:50 amENE 11.7 13.6 4.3 85.5ESE30.04- 80.8 81.3 74.5---
2024-03-02 08:40 am NE 11.7 13.6 4.3-5.5ESE30.04- 80.8 81.3 75.2---
2024-03-02 08:30 amENE 9.7 13.6----30.04- 80.6 81.3 74.8---
2024-03-02 08:20 amENE 11.7 13.6 4.6 95.5ESE30.03- 80.4 81.3 75.6---
2024-03-02 08:10 amENE 11.7 15.5 4.6-5.5ESE30.03- 80.4 81.3 75.4---
2024-03-02 08:00 am E 11.7 15.5----30.02+0.04 80.6 81.3 76.1---
2024-03-02 07:50 am E 11.7 13.6 4.3 85.4ESE30.02- 80.8 81.3 76.3---
2024-03-02 07:40 amENE 11.7 15.5 4.3-5.4ESE30.02- 81.0 81.3 76.1---
2024-03-02 07:30 amENE 11.7 13.6----30.02- 81.1 81.3 75.4---
2024-03-02 07:20 amENE 11.7 15.5 4.6 85.5 E30.02- 81.0 81.3 74.8---
2024-03-02 07:10 amENE 13.6 15.5 4.6-5.5 E30.01- 80.8 81.3 75.4---
2024-03-02 07:00 amENE 11.7 13.6----30.01+0.02 80.6 81.3 75.6---
2024-03-02 06:50 amENE 11.7 15.5 4.3 95.4ESE30.00- 80.6 81.3 75.2---

Detailed Wave Summary
for 42057 as of (6:10 am EST)
1110 GMT on 03/03/2024:

These wave data are displayed in rounded times.

     

Click on the graph icon in the table below to see a time series plot of the last five days of that observation.

5-day plot - Significant Wave Height Significant Wave Height (WVHT): 4.6 ft
5-day plot - Swell Height Swell Height (SwH): 3.9 ft
5-day plot - Swell Period Swell Period (SwP): 8.3 sec
5-day plot - Swell Direction Swell Direction (SwD):ESE
5-day plot - Wind Wave Height Wind Wave Height (WWH): 2.6 ft
5-day plot - Wind Wave Period Wind Wave Period (WWP): 4.3 sec
5-day plot - Wind Wave Direction Wind Wave Direction (WWD): E
5-day plot - Wave Steepness Wave Steepness (STEEPNESS): AVERAGE
5-day plot - Average Wave Period Average Wave Period (APD): 5.1 sec
Previous observations
TIME
(EST)
5-day plot - Wave Height
WVHT
ft
5-day plot - Swell Height
SwH
ft
5-day plot - Swell Period
SwP
sec
5-day plot - Swell Direction
SwD
 
5-day plot - Wind Wave Height
WWH
ft
5-day plot - Wind Wave Period
WWP
sec
5-day plot - Wind Wave Direction
WWD
 
5-day plot - Wave Steepness
STEEPNESS
 
5-day plot - Average Wave Period
APD
sec
2024-03-03 05:40 am 4.6 3.9 8.3ESE 2.0 4.2 ENE AVERAGE 5.3
2024-03-03 05:10 am 4.6 3.9 8.3ESE 2.6 5.0 E AVERAGE 5.3
2024-03-03 04:40 am 4.6 3.9 8.3 E 2.3 4.3 E AVERAGE 5.3
2024-03-03 04:10 am 4.9 3.9 9.1ESE 2.6 4.8 E AVERAGE 5.4
2024-03-03 03:40 am 4.6 3.9 9.1ESE 2.3 4.8 E SWELL 5.3
2024-03-03 03:10 am 4.6 3.9 9.1 E 2.3 4.5 ENE SWELL 5.4
2024-03-03 02:40 am 4.9 4.3 9.1 E 2.6 4.8 ENE AVERAGE 5.4
2024-03-03 02:10 am 4.6 3.6 9.1 E 2.6 5.3 E SWELL 5.3
2024-03-03 01:40 am 4.6 3.6 9.1ESE 3.0 5.3 E SWELL 5.3
2024-03-03 01:10 am 4.3 3.6 7.7 E 2.3 5.0 E AVERAGE 5.2
2024-03-03 12:40 am 4.3 3.0 9.1 E 3.0 5.6 E SWELL 5.3
2024-03-03 12:10 am 4.6 3.6 9.1 E 2.6 5.6 E SWELL 5.6
2024-03-02 11:40 pm 4.3 3.9 9.1 E 2.3 4.3 E SWELL 5.9
2024-03-02 11:10 pm 4.3 3.9 9.1 E 2.3 5.0 E SWELL 5.8
2024-03-02 10:40 pm 4.3 3.6 9.1ESE 2.3 5.6 ENE SWELL 5.8
2024-03-02 10:10 pm 4.3 3.6 7.7ESE 2.0 3.8 ENE AVERAGE 5.8
2024-03-02 09:40 pm 4.3 3.9 9.1ESE 2.0 4.8 E SWELL 6.1
2024-03-02 09:10 pm 4.3 4.3 9.1ESE 1.3 3.7 ENE SWELL 6.1
2024-03-02 08:40 pm 4.3 3.9 9.1 E 1.6 4.3 ENE SWELL 5.8
2024-03-02 08:10 pm 4.6 4.3 8.3 E 2.0 4.8 E AVERAGE 5.9
2024-03-02 07:40 pm 4.6 3.9 8.3 E 2.0 4.8 E AVERAGE 5.9
2024-03-02 07:10 pm 4.3 3.9 9.1 E 1.6 4.3 ENE SWELL 5.7
2024-03-02 06:40 pm 4.3 3.9 9.1 E 1.6 4.3 E SWELL 5.7
2024-03-02 06:10 pm 3.9 3.6 9.1 E 1.3 3.8 E SWELL 5.4
2024-03-02 05:40 pm 4.3 3.9 9.1 E 1.6 3.7 ENE SWELL 5.6
2024-03-02 05:10 pm 3.9 3.6 8.3 E 1.3 4.0 ESE AVERAGE 5.5
2024-03-02 04:40 pm 3.9 3.6 9.1 E 1.6 4.2 ENE SWELL 5.5
2024-03-02 04:10 pm 4.3 3.9 9.1 E 1.6 4.3 E SWELL 5.6
2024-03-02 03:40 pm 4.3 3.9 9.1 E 1.6 3.6 E SWELL 5.4
2024-03-02 03:10 pm 4.6 4.3 8.3ESE 1.6 3.6 E AVERAGE 5.5
2024-03-02 02:40 pm 5.2 4.9 8.3ESE 2.0 3.8 E AVERAGE 5.6
2024-03-02 02:10 pm 5.2 4.6 9.1ESE 3.0 5.3 E AVERAGE 5.4
2024-03-02 01:40 pm 5.6 3.3 8.3ESE 4.3 5.6 E AVERAGE 5.4
2024-03-02 01:10 pm 5.6 4.6 5.6 E 3.3 4.8 EVERY_STEEP 5.3
2024-03-02 12:40 pm 5.6 3.6 7.7 E 4.3 5.6 E STEEP 5.3
2024-03-02 12:10 pm 5.2 3.6 9.1 E 3.6 5.6 E AVERAGE 5.2
2024-03-02 11:40 am 4.9 3.9 9.1 E 3.3 5.9 E AVERAGE 5.3
2024-03-02 11:10 am 4.3 3.0 8.3 E 3.3 5.0 ENE AVERAGE 5.0
2024-03-02 10:40 am 4.6 3.0 9.1 E 3.6 6.7 E AVERAGE 5.3
2024-03-02 10:10 am 4.6 3.3 8.3 E 3.0 5.9 ENE AVERAGE 5.4
2024-03-02 09:40 am 4.6 3.6 9.1ESE 3.0 5.9 E SWELL 5.7
2024-03-02 09:10 am 4.6 3.9 9.1ESE 2.6 4.5 ENE SWELL 5.7
2024-03-02 08:40 am 4.3 3.3 8.3ESE 2.6 4.8 E AVERAGE 5.5
2024-03-02 08:10 am 4.6 3.6 9.1ESE 2.6 5.9 ENE SWELL 5.5
2024-03-02 07:40 am 4.3 3.6 8.3ESE 2.3 4.5 ENE AVERAGE 5.4
2024-03-02 07:10 am 4.6 3.3 8.3 E 3.3 6.2 ENE AVERAGE 5.5

Plot of wave energy versus frequency (and period)